When you browse on this site, cookies collect data to enhance your experience and personalize the content and advertising you see.
Visit our Privacy Policy to learn more. By continuing to use the site, you agree to this use of cookies and data.
  • In Österreich
  • Länderverzeichnis
  • Für 7 Tage
  • Wassertemperatur
  • Wetterkarte
  • News
  • Widgets
  • user-avatar
    Anmelden

    Stündliche Wetter Pole

    Heute, 4 Juni, Donnerstag

    Zeit Temperatur Niederschläge Wind Luftdruck Luftfeuchtigkeit
    00:00 +7°C° 0 mm 2 m/S 739 mmHg 96%
    01:00 +6°C° 0 mm 2 m/S 739 mmHg 96%
    02:00 +6°C° 0 mm 2 m/S 739 mmHg 97%
    03:00 +6°C° 0 mm 2 m/S 739 mmHg 97%
    04:00 +6°C° 0 mm 2 m/S 739 mmHg 98%
    05:00 +6°C° 0 mm 2 m/S 739 mmHg 98%
    06:00 +7°C° 0 mm 2 m/S 739 mmHg 96%
    07:00 +9°C° 0 mm 2 m/S 739 mmHg 94%
    08:00 +10°C° 0 mm 3 m/S 739 mmHg 92%
    09:00 +11°C° 0.3 mm 3 m/S 739 mmHg 88%
    10:00 +12°C° 0.3 mm 3 m/S 739 mmHg 84%
    11:00 +14°C° 0.3 mm 3 m/S 738 mmHg 79%
    12:00 +14°C° 0.7 mm 4 m/S 738 mmHg 78%
    13:00 +15°C° 0.7 mm 4 m/S 738 mmHg 76%
    14:00 +15°C° 0.7 mm 4 m/S 738 mmHg 75%
    15:00 +15°C° 0.5 mm 4 m/S 738 mmHg 75%
    16:00 +15°C° 0.5 mm 4 m/S 738 mmHg 76%
    17:00 +15°C° 0.5 mm 4 m/S 738 mmHg 76%
    18:00 +14°C° 0.3 mm 3 m/S 738 mmHg 80%
    19:00 +13°C° 0.3 mm 3 m/S 738 mmHg 84%
    20:00 +13°C° 0.3 mm 2 m/S 738 mmHg 88%
    21:00 +12°C° 0 mm 2 m/S 738 mmHg 90%
    22:00 +10°C° 0 mm 2 m/S 738 mmHg 91%
    23:00 +9°C° 0 mm 2 m/S 738 mmHg 92%

    Morgen, 5 Juni, Freitag

    Zeit Temperatur Niederschläge Wind Luftdruck Luftfeuchtigkeit
    00:00 +9°C° 0 mm 2 m/S 738 mmHg 93%
    01:00 +9°C° 0 mm 2 m/S 738 mmHg 93%
    02:00 +8°C° 0 mm 2 m/S 738 mmHg 94%
    03:00 +8°C° 0 mm 2 m/S 738 mmHg 94%
    04:00 +9°C° 0 mm 2 m/S 738 mmHg 94%
    05:00 +9°C° 0 mm 2 m/S 737 mmHg 94%
    06:00 +12°C° 0 mm 2 m/S 738 mmHg 92%
    07:00 +13°C° 0 mm 3 m/S 738 mmHg 90%
    08:00 +16°C° 0 mm 3 m/S 738 mmHg 87%
    09:00 +17°C° 0.1 mm 4 m/S 738 mmHg 85%
    10:00 +17°C° 0.1 mm 5 m/S 738 mmHg 82%
    11:00 +19°C° 0.1 mm 5 m/S 738 mmHg 80%
    12:00 +20°C° 0.2 mm 5 m/S 738 mmHg 80%
    13:00 +20°C° 0.2 mm 5 m/S 738 mmHg 79%
    14:00 +20°C° 0.2 mm 5 m/S 738 mmHg 79%
    15:00 +21°C° 0.2 mm 5 m/S 738 mmHg 79%
    16:00 +21°C° 0.2 mm 5 m/S 738 mmHg 79%
    17:00 +21°C° 0.2 mm 5 m/S 738 mmHg 79%
    18:00 +20°C° 0.8 mm 4 m/S 738 mmHg 83%
    19:00 +19°C° 0.8 mm 4 m/S 739 mmHg 87%
    20:00 +18°C° 0.8 mm 3 m/S 739 mmHg 91%
    21:00 +17°C° 0.1 mm 3 m/S 739 mmHg 92%
    22:00 +17°C° 0.1 mm 3 m/S 739 mmHg 93%
    23:00 +16°C° 0.1 mm 3 m/S 740 mmHg 94%

    übermorgen, 6 Juni, Samstag

    Zeit Temperatur Niederschläge Wind Luftdruck Luftfeuchtigkeit
    00:00 +16°C° 0 mm 3 m/S 740 mmHg 94%
    01:00 +14°C° 0 mm 4 m/S 739 mmHg 94%
    02:00 +14°C° 0 mm 4 m/S 739 mmHg 94%
    03:00 +14°C° 0 mm 4 m/S 739 mmHg 93%
    04:00 +15°C° 0 mm 4 m/S 740 mmHg 92%
    05:00 +15°C° 0 mm 4 m/S 740 mmHg 92%
    06:00 +15°C° 0 mm 4 m/S 740 mmHg 91%
    07:00 +16°C° 0 mm 5 m/S 741 mmHg 89%
    08:00 +16°C° 0 mm 5 m/S 741 mmHg 88%
    09:00 +18°C° 0.1 mm 4 m/S 742 mmHg 89%
    10:00 +18°C° 0.1 mm 4 m/S 742 mmHg 89%
    11:00 +18°C° 0.1 mm 3 m/S 743 mmHg 90%
    12:00 +19°C° 0.1 mm 3 m/S 743 mmHg 83%
    13:00 +21°C° 0.1 mm 3 m/S 744 mmHg 76%
    14:00 +22°C° 0.1 mm 4 m/S 744 mmHg 69%
    15:00 +22°C° 0.2 mm 3 m/S 744 mmHg 69%
    16:00 +22°C° 0.2 mm 3 m/S 744 mmHg 69%
    17:00 +22°C° 0.2 mm 3 m/S 744 mmHg 70%
    18:00 +21°C° 0 mm 2 m/S 745 mmHg 74%
    19:00 +19°C° 0 mm 2 m/S 745 mmHg 78%
    20:00 +19°C° 0 mm 1 m/S 745 mmHg 82%
    21:00 +18°C° 0 mm 1 m/S 746 mmHg 83%
    22:00 +16°C° 0 mm 1 m/S 746 mmHg 85%
    23:00 +15°C° 0 mm 1 m/S 747 mmHg 86%

    7 Juni, Sonntag

    Zeit Temperatur Niederschläge Wind Luftdruck Luftfeuchtigkeit
    00:00 +15°C° 0 mm 1 m/S 747 mmHg 86%
    01:00 +15°C° 0 mm 1 m/S 747 mmHg 87%
    02:00 +15°C° 0 mm 1 m/S 747 mmHg 87%
    03:00 +15°C° 0 mm 2 m/S 747 mmHg 88%
    04:00 +15°C° 0 mm 2 m/S 747 mmHg 89%
    05:00 +15°C° 0 mm 2 m/S 747 mmHg 91%
    06:00 +16°C° 0.1 mm 2 m/S 747 mmHg 90%
    07:00 +17°C° 0.1 mm 3 m/S 747 mmHg 90%
    08:00 +18°C° 0.1 mm 3 m/S 747 mmHg 90%
    09:00 +19°C° 0 mm 3 m/S 747 mmHg 85%
    10:00 +21°C° 0 mm 4 m/S 747 mmHg 81%
    11:00 +23°C° 0 mm 5 m/S 747 mmHg 76%
    12:00 +25°C° 1.2 mm 5 m/S 747 mmHg 74%
    13:00 +26°C° 1.2 mm 5 m/S 746 mmHg 73%
    14:00 +27°C° 1.2 mm 5 m/S 746 mmHg 71%
    15:00 +27°C° 0.6 mm 5 m/S 746 mmHg 73%
    16:00 +26°C° 0.6 mm 4 m/S 746 mmHg 75%
    17:00 +26°C° 0.6 mm 4 m/S 745 mmHg 76%
    18:00 +23°C° 0.1 mm 4 m/S 745 mmHg 79%
    19:00 +22°C° 0.1 mm 4 m/S 745 mmHg 81%
    20:00 +20°C° 0.1 mm 3 m/S 745 mmHg 84%
    21:00 +20°C° 0 mm 3 m/S 746 mmHg 84%
    22:00 +19°C° 0 mm 3 m/S 746 mmHg 85%
    23:00 +18°C° 0 mm 3 m/S 746 mmHg 85%

    8 Juni, Montag

    Zeit Temperatur Niederschläge Wind Luftdruck Luftfeuchtigkeit
    00:00 +18°C° 0 mm 2 m/S 746 mmHg 88%
    01:00 +17°C° 0 mm 2 m/S 746 mmHg 90%
    02:00 +17°C° 0 mm 2 m/S 746 mmHg 92%
    03:00 +16°C° 0 mm 2 m/S 746 mmHg 92%
    04:00 +16°C° 0 mm 2 m/S 746 mmHg 93%
    05:00 +16°C° 0 mm 2 m/S 745 mmHg 94%
    06:00 +18°C° 0 mm 2 m/S 745 mmHg 89%
    07:00 +19°C° 0 mm 3 m/S 745 mmHg 84%
    08:00 +21°C° 0 mm 3 m/S 745 mmHg 80%
    09:00 +22°C° 0.4 mm 3 m/S 745 mmHg 76%
    10:00 +25°C° 0.4 mm 3 m/S 745 mmHg 73%
    11:00 +26°C° 0.4 mm 3 m/S 745 mmHg 69%
    12:00 +26°C° 1.4 mm 3 m/S 745 mmHg 71%
    13:00 +26°C° 1.4 mm 3 m/S 745 mmHg 73%
    14:00 +26°C° 1.4 mm 4 m/S 744 mmHg 75%
    15:00 +26°C° 1.1 mm 3 m/S 744 mmHg 77%
    16:00 +25°C° 1.1 mm 3 m/S 744 mmHg 79%
    17:00 +25°C° 1.1 mm 2 m/S 744 mmHg 81%
    18:00 +24°C° 0.2 mm 2 m/S 744 mmHg 84%
    19:00 +23°C° 0.2 mm 2 m/S 744 mmHg 86%
    20:00 +21°C° 0.2 mm 2 m/S 744 mmHg 89%
    21:00 +20°C° 0.1 mm 2 m/S 744 mmHg 91%
    22:00 +19°C° 0.1 mm 2 m/S 745 mmHg 92%
    23:00 +19°C° 0.1 mm 2 m/S 745 mmHg 94%

    9 Juni, Dienstag

    Zeit Temperatur Niederschläge Wind Luftdruck Luftfeuchtigkeit
    00:00 +18°C° 0 mm 2 m/S 745 mmHg 95%
    01:00 +18°C° 0 mm 2 m/S 745 mmHg 95%
    02:00 +17°C° 0 mm 2 m/S 745 mmHg 96%
    03:00 +17°C° 0 mm 2 m/S 745 mmHg 96%
    04:00 +17°C° 0 mm 2 m/S 745 mmHg 96%
    05:00 +17°C° 0 mm 2 m/S 745 mmHg 96%
    06:00 +19°C° 0 mm 2 m/S 746 mmHg 93%
    07:00 +20°C° 0 mm 3 m/S 746 mmHg 90%
    08:00 +22°C° 0 mm 3 m/S 746 mmHg 86%
    09:00 +24°C° 0.8 mm 3 m/S 746 mmHg 81%
    10:00 +26°C° 0.8 mm 3 m/S 746 mmHg 75%
    11:00 +27°C° 0.8 mm 2 m/S 747 mmHg 69%
    12:00 +27°C° 0.3 mm 2 m/S 747 mmHg 67%
    13:00 +27°C° 0.3 mm 2 m/S 746 mmHg 66%
    14:00 +28°C° 0.3 mm 2 m/S 746 mmHg 64%
    15:00 +27°C° 0.5 mm 2 m/S 746 mmHg 67%
    16:00 +27°C° 0.5 mm 2 m/S 746 mmHg 71%
    17:00 +27°C° 0.5 mm 2 m/S 746 mmHg 74%
    18:00 +25°C° 0.3 mm 2 m/S 746 mmHg 78%
    19:00 +24°C° 0.3 mm 1 m/S 746 mmHg 82%
    20:00 +22°C° 0.3 mm 1 m/S 746 mmHg 86%
    21:00 +22°C° 0.1 mm 1 m/S 746 mmHg 87%
    22:00 +21°C° 0.1 mm 1 m/S 746 mmHg 89%
    23:00 +20°C° 0.1 mm 1 m/S 746 mmHg 90%
    Mehr zeigen